This demonstration page uses our WeatherBlox Daily Observations layout. Learn more.

39.01783, -85.05884

Hourly Observations for January 23, 2019

Temp ( °F °C ) Dew Point ( °F °C ) Humidity (%) Winds ( mph kmh ) Pressure ( in mb ) Visibility ( mi km ) Precip ( " mm )
12:52 am 00:52 Cloudy 43 6.1 31 -0.6 63 63 S 14 22 30.03 1017 10 16.09344 0 0
1:52 am 01:52 Cloudy 44 6.7 33 0.6 65 65 S 15 24 30 1016 10 16.09344 0 0
2:52 am 02:52 Cloudy with Light Rain 43 6.1 35 1.7 74 74 S 12 19 29.97 1015 10 16.09344 0.001 0.001
3:52 am 03:52 Cloudy with Light Rain 43 6.1 36 2.2 76 76 S 16 26 29.94 1014 10 16.09344 0.01 0.254
4:52 am 04:52 Cloudy with Light Rain 43 6.1 38 3.3 82 82 S 17 28 29.88 1012 10 16.09344 0.02 0.508
5:52 am 05:52 Cloudy with Light Rain 44 6.7 39 3.9 83 83 S 15 24 29.85 1011 10 16.09344 0.001 0.001
6:52 am 06:52 Cloudy with Light Rain 44 6.7 40 4.4 85 85 S 17 28 29.85 1011 6 9.656064 0.04 1.016
7:52 am 07:52 Cloudy with Light Rain 46 7.8 42 5.6 86 86 S 18 30 29.83 1010 6 9.656064 0.07 1.778
8:52 am 08:52 Cloudy with Light Rain 47 8.3 44 6.7 90 90 S 15 24 29.83 1010 5 8.04672 0.09 2.286
9:52 am 09:52 Cloudy with Light Rain 48 8.9 45 7.2 89 89 S 12 19 29.83 1010 4 6.437376 0.13 3.302
10:14 am 10:14 Cloudy with Light Rain 49 9.4 45 7.2 86 86 S 13 20 29.83 1010 6 9.656064 0.02 0.508
10:41 am 10:41 Cloudy with Light Rain 49 9.4 46 7.8 90 90 S 18 30 29.83 1010 6 9.656064 0.05 1.27
10:52 am 10:52 Cloudy with Light Rain 50 10 46 7.8 86 86 S 22 35 29.8 1009 6 9.656064 0.07 1.778
11:11 am 11:11 Cloudy with Light Rain 50 10 47 8.3 89 89 S 20 31 29.8 1009 7 11.265408 0.01 0.254
11:30 am 11:30 Cloudy with Light Rain 50 10 47 8.3 89 89 S 22 35 29.8 1009 5 8.04672 0.02 0.508
11:52 am 11:52 Cloudy with Light Rain 50 10 47 8.3 89 89 S 17 28 29.8 1009 4 6.437376 0.06 1.524
12:07 pm 12:07 Cloudy with Light Rain 51 10.6 48 8.9 89 89 S 16 26 29.8 1009 2 3.218688 0.01 0.254
12:11 pm 12:11 Cloudy with Rain 50 10 48 8.9 93 93 SSW 16 26 29.8 1009 2 3.218688 0.03 0.762
12:52 pm 12:52 Cloudy with Rain 51 10.6 48 8.9 89 89 SSW 15 24 29.77 1008 3 4.828032 0.1 2.54
1:26 pm 13:26 Cloudy with Light Rain 51 10.6 48 8.9 89 89 S 21 33 29.74 1007 7 11.265408 0.03 0.762
1:52 pm 13:52 Cloudy 52 11.1 48 8.9 86 86 SSW 17 28 29.71 1006 8 12.874752 0.04 1.016
2:52 pm 14:52 Cloudy with Rain 52 11.1 48 8.9 86 86 SSW 20 31 29.68 1005 6 9.656064 0.01 0.254
3:07 pm 15:07 Cloudy with Light Rain 52 11.1 48 8.9 86 86 SSW 17 28 29.71 1006 7 11.265408 0.02 0.508
3:52 pm 15:52 Cloudy with Rain 51 10.6 48 8.9 89 89 S 17 28 29.65 1004 5 8.04672 0.07 1.778
4:52 pm 16:52 Cloudy with Light Rain 51 10.6 48 8.9 89 89 SSW 10 17 29.65 1004 10 16.09344 0.04 1.016
5:14 pm 17:14 Cloudy with Light Rain 51 10.6 48 8.9 89 89 SSW 10 17 29.71 1006 9 14.484096 0.01 0.254
5:32 pm 17:32 Cloudy with Light Rain 51 10.6 48 8.9 89 89 SSW 12 19 29.68 1005 7 11.265408 0.02 0.508
5:48 pm 17:48 Cloudy with Rain 52 11 48 9 88 88 SW 12 19 29.68 1005 7 11.265408 0.03 0.762
5:52 pm 17:52 Cloudy with Rain 51 10.6 48 8.9 89 89 WSW 12 19 29.68 1005 5 8.04672 0.05 1.27
5:56 pm 17:56 Cloudy with Rain 45 7.2 43 6.1 93 93 WNW 16 26 29.71 1006 4 6.437376 0.001 0.001
6:02 pm 18:02 Cloudy with Light Rain 43 6.1 40 4.4 89 89 WNW 15 24 29.71 1006 6 9.656064 0.02 0.508
6:19 pm 18:19 Cloudy with Light Rain 42 5.6 39 3.9 89 89 WNW 16 26 29.74 1007 5 8.04672 0.02 0.508
6:52 pm 18:52 Cloudy with Light Rain 40 4.4 38 3.3 93 93 WNW 12 19 29.71 1006 3 4.828032 0.03 0.762
7:08 pm 19:08 Cloudy with Light Rain 40 4.4 37 2.8 89 89 WNW 10 17 29.74 1007 6 9.656064 0.01 0.254
7:35 pm 19:35 Cloudy with Light Rain 39 3.9 37 2.8 93 93 WNW 10 17 29.77 1008 8 12.874752 0.01 0.254
7:52 pm 19:52 Cloudy with Light Rain 39 3.9 37 2.8 93 93 WNW 12 19 29.74 1007 7 11.265408 0.02 0.508
8:52 pm 20:52 Cloudy with Light Rain 37 2.8 35 1.7 93 93 WNW 12 19 29.74 1007 4 6.437376 0.04 1.016
9:15 pm 21:15 Cloudy with Light Rain 36 2.2 34 1.1 93 93 WNW 12 19 29.74 1007 6 9.656064 0.01 0.254
9:52 pm 21:52 Cloudy with Light Drizzle 35 1.7 32 0 89 89 WNW 15 24 29.71 1006 2.5 4.02336 0.01 0.254
10:52 pm 22:52 Cloudy with Light Rain 33 0.6 31 -0.6 92 92 NW 10 17 29.71 1006 2.5 4.02336 0.03 0.762
11:52 pm 23:52 Cloudy with Light Snow 32 0 29 -1.7 88 88 WNW 14 22 29.74 1007 2 3.218688 0.01 0.254

Powered by AerisWeather